x

Luke Offshore Test Platform - 64 Nm South Of Dauphin Island, Al (42040) Wave Buoy

5:50pm - Thu 23rd Nov 2017 All times are CST. -6 hours from GMT.

  • Sig Wave height 3.9ft
  • Swell Direction
  • Peak Period 5s
  • Average Period 4s
  • Wind
    16mph, 22mph gusts
  • Sea Temp 77°f
  • Air Temp 65°f
  • Sea Pressure 1014.7mb
  • Luke Offshore Test Platform - 64 Nm South Of Dauphin Island, Al
  • Luke Offshore Test Platform - 64 Nm South Of Dauphin Island, Al

More Historic Weather Station data

Upgrade to MSW Pro to gain access to the past 30 days of data for over 8000 Wavebouys and Weather Stations around the globe.

Join

Comparision Forecast

View Surf forecast
   
Thu 11/23 5:50pm 4ft 5s 4s 16 22 mph 1014.7mb 77f 65f
5:40pm 4ft  -  4s 16 20 mph 1014.6mb 77f 65f
5:30pm  -   -   -  16 20 mph 1014.6mb 77f 65f
5:20pm  -   -   -  18 22 mph 1014.6mb 77f 65f
5:10pm  -   -   -  18 20 mph 1014.6mb 77f 65f
5:00pm  -   -   -  18 25 mph 1014.6mb 77f 65f
4:50pm 3.5ft 5s 4s 18 22 mph 1014.6mb 77f 65f
4:40pm 3.5ft  -  4s 18 25 mph 1014.5mb 77f 65f
4:30pm  -   -   -  18 22 mph 1014.5mb - 65f
4:20pm  -   -   -  18 22 mph 1014.4mb - 64f
4:10pm  -   -   -  18 22 mph 1014.3mb 77f 64f
4:00pm  -   -   -  18 22 mph 1014.3mb 77f 64f
3:50pm 4ft 6s 4s 18 25 mph 1014.3mb 77f 64f
3:40pm 4ft  -  4s 18 22 mph 1014.3mb 77f 64f
3:30pm  -   -   -  18 22 mph 1014.2mb 77f 64f
3:20pm  -   -   -  18 22 mph 1014.2mb 77f 64f
3:10pm  -   -   -  18 22 mph 1014.1mb 77f 64f
3:00pm  -   -   -  16 22 mph 1014mb 77f 64f
2:50pm 3.5ft 6s 4s 16 20 mph 1014.2mb 77f 64f
2:40pm 3.5ft  -  4s 16 20 mph 1014.2mb 77f 64f
2:30pm  -   -   -  16 18 mph 1014.2mb 77f 64f
2:20pm  -   -   -  16 20 mph 1014.1mb 77f 64f
2:10pm  -   -   -  16 20 mph 1014mb 77f 64f
2:00pm  -   -   -  16 20 mph 1014mb 77f 64f
1:50pm 4.5ft 6s 4s 16 20 mph 1014.1mb 77f 63f
1:40pm  -   -   -  13 18 mph 1014.3mb 77f 63f
1:30pm  -   -   -  16 22 mph 1014.3mb 77f 64f
1:20pm  -   -   -  16 20 mph 1014.3mb 77f 64f
1:10pm  -   -   -  16 20 mph 1014.3mb 77f 64f
1:00pm  -   -   -  16 20 mph 1014.3mb 77f 64f
12:50pm 4.5ft 6s 5s 16 20 mph 1014.3mb 77f 64f
12:40pm  -   -   -  18 20 mph 1014.5mb 77f 64f
12:30pm  -   -   -  16 20 mph 1014.7mb 77f 64f
12:20pm  -   -   -  13 18 mph 1015mb 77f 64f
12:10pm  -   -   -  13 20 mph 1015.2mb 77f 64f
12:00pm  -   -   -  13 18 mph 1015.4mb 77f 64f
11:50am 4.5ft 6s 5s 13 16 mph 1015.4mb 77f 64f
11:40am 4.5ft  -  5s 13 18 mph 1015.4mb 77f 64f
11:30am  -   -   -  16 20 mph 1015.4mb 77f 64f
11:20am  -   -   -  16 18 mph 1015.7mb 77f 64f
11:10am  -   -   -  16 20 mph 1015.8mb 77f 64f
11:00am  -   -   -  16 18 mph 1015.9mb 77f 64f
10:50am 5ft 6s 5s 16 20 mph 1015.9mb 77f 64f
10:40am 5ft  -  5s 16 20 mph 1016mb 77f 64f
10:30am  -   -   -  16 20 mph 1016.2mb 77f 64f
10:20am  -   -   -  16 20 mph 1016.5mb 77f 64f
10:10am  -   -   -  16 20 mph 1016.5mb 77f 64f
10:00am  -   -   -  16 20 mph 1016.7mb 77f 64f
9:50am 5ft 6s 5s 16 20 mph 1016.9mb 77f 63f
9:40am  -   -   -  16 22 mph 1017mb 77f 63f
9:30am  -   -   -  18 22 mph 1017.1mb 77f 63f
9:20am  -   -   -  18 22 mph 1017.1mb 77f 63f
9:10am  -   -   -  18 22 mph 1017.1mb 77f 63f
9:00am  -   -   -  18 27 mph 1017.2mb 77f 62f
8:50am 6ft 6s 5s 18 22 mph 1017.3mb 77f 62f
8:40am  -   -   -  18 25 mph 1017.1mb 77f 62f
8:30am  -   -   -  18 25 mph 1017.1mb 77f 62f
8:20am  -   -   -  18 22 mph 1017mb 77f 62f
8:10am  -   -   -  20 25 mph 1017.1mb 77f 62f
8:00am  -   -   -  18 25 mph 1017mb 77f 62f
7:50am 5.5ft 6s 5s 18 25 mph 1017mb 77f 62f
7:40am  -   -   -  20 25 mph 1016.9mb 77f 62f
7:30am  -   -   -  20 27 mph 1016.9mb 77f 62f
7:20am  -   -   -  18 25 mph 1016.6mb - 62f
7:10am  -   -   -  20 25 mph 1016.6mb 77f 62f
7:00am  -   -   -  20 29 mph 1016.5mb 77f 62f
6:50am 6ft 6s 5s 18 22 mph 1016.4mb 77f 62f
6:40am  -   -   -  18 25 mph 1016.3mb 77f 62f
6:30am  -   -   -  18 25 mph 1016.2mb 77f 62f
6:20am  -   -   -  18 25 mph 1016.1mb 77f 62f
6:10am  -   -   -  18 25 mph 1015.9mb 77f 62f
6:00am  -   -   -  18 25 mph 1016mb 77f 62f
5:50am 6.5ft 7s 5s 20 25 mph 1016.1mb 77f 62f
5:40am  -   -   -  20 25 mph 1016.1mb - 62f
5:30am  -   -   -  20 25 mph 1015.9mb 77f 62f
5:20am  -   -   -  20 29 mph 1015.9mb 77f 63f
5:10am  -   -   -  20 27 mph 1016.1mb 77f 62f
5:00am  -   -   -  20 25 mph 1016mb 77f 62f
4:50am 7ft 6s 5s 20 25 mph 1015.9mb 77f 62f
4:40am 7ft  -  5s 20 27 mph 1016mb 77f 63f
4:30am  -   -   -  22 27 mph 1015.9mb 77f 62f
4:20am  -   -   -  22 27 mph 1015.8mb 77f 62f
4:10am  -   -   -  22 29 mph 1015.8mb 77f 63f
4:00am  -   -   -  22 27 mph 1015.7mb 77f 63f
3:50am 7ft  -  5s 22 27 mph 1015.8mb 77f -
3:40am 7ft  -  5s 22 29 mph 1015.8mb 77f 62f
3:30am  -   -   -  22 27 mph 1015.9mb 77f 62f
3:20am  -   -   -  22 29 mph 1016mb 77f 63f
3:10am  -   -   -  22 29 mph 1016.1mb 77f 63f
3:00am  -   -   -  22 29 mph 1016.1mb 77f 63f
2:50am 7ft 7s 5s 22 29 mph 1016.2mb 77f 63f
2:40am 7ft  -  5s 25 31 mph 1016mb 77f 63f
2:30am  -   -   -  22 29 mph 1016mb 77f 63f
2:20am  -   -   -  22 29 mph 1016.1mb 77f 64f
2:10am  -   -   -  22 29 mph 1016.2mb 77f 64f
2:00am  -   -   -  22 29 mph 1016mb 77f 64f
1:50am 7ft 7s 5s 22 29 mph 1016mb 77f 64f
1:40am 7ft  -  5s 22 29 mph 1016.2mb 77f 64f
1:30am  -   -   -  25 31 mph 1016.2mb 77f 64f
1:20am  -   -   -  25 31 mph 1016.1mb 77f 64f
1:10am  -   -   -  25 31 mph 1016.2mb 77f 64f
1:00am  -   -   -  22 31 mph 1016.3mb 77f 64f
12:50am 7.5ft 7s 5s 22 31 mph 1016.3mb 78f 64f
12:40am 7.5ft  -  5s 25 31 mph 1016.2mb 78f 65f
12:30am  -   -   -  25 34 mph 1016.2mb 78f 65f
12:20am  -   -   -  25 29 mph 1016.2mb 78f 65f
12:10am  -   -   -  25 31 mph 1016.3mb 78f 65f
12:00am  -   -   -  25 29 mph 1016.3mb 78f 65f
Wed 11/22 11:50pm 7ft 7s 5s 25 31 mph 1016.6mb 78f 65f
11:40pm 7ft  -  5s 25 31 mph 1016.6mb 78f 65f
11:30pm  -   -   -  25 29 mph 1016.7mb 78f 65f
11:20pm  -   -   -  25 31 mph 1016.9mb 78f 65f
11:10pm  -   -   -  22 29 mph 1017.1mb 78f 66f
11:00pm  -   -   -  22 29 mph 1017.1mb 78f 66f
10:50pm 8ft 7s 5s 25 29 mph 1017.2mb 78f 66f
10:40pm 8ft  -  5s 25 29 mph 1017.3mb - 66f
10:30pm  -   -   -  25 31 mph 1017.3mb 78f 66f
10:20pm  -   -   -  25 31 mph 1017.3mb - 66f
10:10pm  -   -   -  25 31 mph 1017.2mb 78f 66f
10:00pm  -   -   -  25 31 mph 1017.3mb 78f 66f
9:50pm 7.5ft 6s 5s 27 34 mph 1017.1mb 78f 66f
9:40pm 7.5ft  -  5s 27 34 mph 1017.2mb 78f 66f
9:30pm  -   -   -  27 31 mph 1017.2mb 78f 66f
9:20pm  -   -   -  27 34 mph 1017.1mb 78f 66f
9:10pm  -   -   -  27 31 mph 1017.1mb 78f 66f
9:00pm  -   -   -  27 31 mph 1017mb 78f 66f
8:50pm 6ft  -  5s 27 34 mph 1017.1mb 78f 66f
8:40pm 6ft  -  5s 27 34 mph 1017mb 78f 66f
8:30pm  -   -   -  27 36 mph 1017.1mb 78f 66f
8:20pm  -   -   -  27 31 mph 1017.2mb 78f 66f
8:10pm  -   -   -  25 31 mph 1017.2mb 78f 67f
8:00pm  -   -   -  27 31 mph 1017.1mb 78f 67f
7:50pm 5.5ft  -  5s 27 34 mph 1017.1mb 78f -
7:40pm 5.5ft  -  5s 27 34 mph 1017mb 78f 67f
7:30pm  -   -   -  27 34 mph 1017mb 78f 67f
7:20pm  -   -   -  25 34 mph 1017.1mb 78f 67f
7:10pm  -   -   -  25 34 mph 1017.1mb 78f 67f
7:00pm  -   -   -  25 31 mph 1017.2mb - 67f
6:50pm 6ft 6s 5s 25 31 mph 1017.1mb 78f 68f
6:40pm 6ft  -  5s 25 31 mph 1017.1mb 78f 68f
6:30pm  -   -   -  25 29 mph 1017.1mb 78f 68f
6:20pm  -   -   -  22 31 mph 1017mb 78f 68f
6:10pm  -   -   -  22 29 mph 1016.8mb 78f 68f
6:00pm  -   -   -  22 29 mph 1016.7mb 78f 68f
5:50pm 5ft 6s 5s 20 27 mph 1016.5mb 78f 68f
5:40pm  -   -   -  20 31 mph 1016.5mb 78f 68f
5:30pm  -   -   -  22 29 mph 1016.3mb 78f 68f
5:20pm  -   -   -  22 29 mph 1016.2mb 78f 68f
5:10pm  -   -   -  22 29 mph 1016mb 78f 68f
5:00pm  -   -   -  22 27 mph 1016mb 78f 68f
4:50pm 5ft 6s 5s 20 27 mph 1015.9mb 78f 68f
4:40pm 5ft  -  5s 20 27 mph 1015.8mb 78f 68f
4:30pm  -   -   -  20 27 mph 1015.8mb 78f 68f
4:20pm  -   -   -  20 25 mph 1015.7mb 78f 68f
4:10pm  -   -   -  20 29 mph 1015.7mb 78f 68f
4:00pm  -   -   -  20 27 mph 1015.7mb 78f 68f
3:50pm 5ft 6s 5s 20 27 mph 1015.5mb - 68f
3:40pm 5ft  -  5s 20 27 mph 1015.5mb 78f 68f
3:30pm  -   -   -  20 25 mph 1015.5mb 78f 68f
3:20pm  -   -   -  20 25 mph 1015.5mb 78f 68f
3:10pm  -   -   -  20 25 mph 1015.3mb 78f 68f
3:00pm  -   -   -  20 27 mph 1015.4mb 78f 68f
2:50pm 5ft 6s 5s 20 25 mph 1015.6mb 78f 68f
2:40pm 5ft  -  5s 20 25 mph 1015.5mb 78f 68f
2:30pm  -   -   -  20 25 mph 1015.6mb 78f 67f
2:20pm  -   -   -  20 25 mph 1015.5mb 78f 67f
2:10pm  -   -   -  20 27 mph 1015.5mb 78f 67f
2:00pm  -   -   -  20 25 mph 1015.5mb 78f 67f
1:50pm 5.5ft 5s 5s 20 27 mph 1015.5mb 78f 67f
1:40pm  -   -   -  20 27 mph 1015.5mb 78f 67f
1:30pm  -   -   -  22 27 mph 1015.8mb 78f 67f
1:20pm  -   -   -  20 27 mph 1015.8mb 78f 67f
1:10pm  -   -   -  22 27 mph 1015.8mb 78f 67f
1:00pm  -   -   -  22 29 mph 1015.9mb 78f 67f
12:50pm 5ft 6s 5s 22 27 mph 1015.9mb 78f 67f
12:40pm 5ft  -  5s 20 25 mph 1016mb 78f 67f
12:30pm  -   -   -  20 25 mph 1016.2mb 78f 67f
12:20pm  -   -   -  20 27 mph 1016.4mb 78f 67f
12:10pm  -   -   -  18 27 mph 1016.5mb 78f 67f
12:00pm  -   -   -  18 25 mph 1016.7mb 78f 67f
11:50am 5.5ft 6s 5s 20 25 mph 1016.7mb 78f 67f
11:40am 5.5ft  -  5s 20 25 mph 1016.9mb 78f 67f
11:30am  -   -   -  20 27 mph 1017mb 78f 67f
11:20am  -   -   -  20 27 mph 1017.2mb 78f 66f
11:10am  -   -   -  20 27 mph 1017.4mb 78f 66f
11:00am  -   -   -  20 27 mph 1017.4mb 78f 66f
10:50am 5.5ft 6s 5s 20 27 mph 1017.6mb 78f 67f
10:40am 5.5ft  -  5s 22 27 mph 1017.6mb 78f 67f
10:30am  -   -   -  22 27 mph 1017.7mb 78f 67f
10:20am  -   -   -  22 27 mph 1017.8mb 78f 67f
10:10am  -   -   -  22 29 mph 1017.9mb 78f 67f
10:00am  -   -   -  22 27 mph 1017.8mb 78f 67f
9:50am 6ft 6s 5s 22 27 mph 1017.7mb 78f 67f
9:40am 6ft  -  5s 22 27 mph 1017.7mb 78f 67f
9:30am  -   -   -  22 27 mph 1017.7mb 78f 67f
9:20am  -   -   -  22 27 mph 1017.6mb 78f 67f
9:10am  -   -   -  22 29 mph 1017.6mb 78f 67f
9:00am  -   -   -  22 27 mph 1017.3mb 78f 67f
8:50am 5.5ft 6s 5s 22 27 mph 1017.3mb 78f 67f
8:40am  -   -   -  22 29 mph 1017.3mb 78f 67f
8:30am  -   -   -  22 27 mph 1017.2mb 78f 67f
8:20am  -   -   -  22 27 mph 1017.3mb 78f 67f
8:10am  -   -   -  22 29 mph 1017.3mb 78f 67f
8:00am  -   -   -  22 27 mph 1017.1mb 78f 67f
7:50am 5ft 5s 5s 20 27 mph 1017.1mb 78f 67f
7:40am  -   -   -  20 25 mph 1017mb 78f 67f
7:30am  -   -   -  20 25 mph 1016.9mb 78f 67f
7:20am  -   -   -  20 27 mph 1016.8mb 78f 67f
7:10am  -   -   -  20 25 mph 1016.8mb 78f 67f
7:00am  -   -   -  20 22 mph 1016.7mb 78f -
6:50am 4.5ft 5s 4s 20 25 mph 1016.7mb 78f 67f
6:40am  -   -   -  20 22 mph 1016.6mb - 67f
6:30am  -   -   -  20 25 mph 1016.5mb 78f 67f
6:20am  -   -   -  20 25 mph 1016.3mb 78f 68f
6:10am  -   -   -  20 25 mph 1016.1mb 78f 68f
6:00am  -   -   -  20 27 mph 1016.2mb 78f 68f
5:50am 4ft 7s 4s 20 27 mph 1016mb 78f 68f
5:40am  -   -   -  20 25 mph 1016.1mb 78f 69f
5:30am  -   -   -  20 25 mph 1015.9mb 78f 69f
5:20am  -   -   -  18 25 mph 1015.9mb 78f 69f
5:10am  -   -   -  18 25 mph 1015.9mb 78f 69f
5:00am  -   -   -  18 22 mph 1015.9mb 78f 68f
4:50am 3.5ft 7s 4s 18 22 mph 1016mb 78f 69f
4:40am  -   -   -  18 22 mph 1016mb 78f 68f
4:30am  -   -   -  16 22 mph 1016.1mb 78f 68f
4:20am  -   -   -  18 22 mph 1016.1mb 78f 69f
4:10am  -   -   -  18 22 mph 1015.9mb 78f 69f
4:00am  -   -   -  18 22 mph 1015.8mb 78f 69f
3:50am 4ft 7s 4s 18 22 mph 1015.9mb 78f 69f
3:40am  -   -   -  18 22 mph 1015.8mb 78f 69f
3:30am  -   -   -  18 25 mph 1015.6mb 78f 69f
3:20am  -   -   -  22 27 mph 1015.1mb 78f 69f
3:10am  -   -   -  22 27 mph 1014.7mb 78f 69f
3:00am  -   -   -  22 27 mph 1014.3mb 78f 69f
2:50am 3.5ft 7s 4s 20 22 mph 1014.6mb 78f 69f
2:40am 3.5ft  -  4s 18 22 mph 1014.9mb 78f 69f
2:30am  -   -   -  18 22 mph 1014.9mb 78f 69f
2:20am  -   -   -  18 22 mph 1015mb 78f 69f
2:10am  -   -   -  18 22 mph 1015.1mb 78f 69f
2:00am  -   -   -  18 20 mph 1014.9mb 78f 69f
1:50am 3.5ft 7s 5s 18 22 mph 1014.9mb 78f 69f
12:50am 3.5ft 7s 4s 13 18 mph 1015.4mb 78f 70f
Tue 11/21 11:50pm 3.5ft 7s 5s 13 18 mph 1015.5mb 78f 70f
11:10pm  -   -   -  13 18 mph 1015.4mb 78f 70f
11:00pm  -   -   -  13 18 mph 1015.5mb 78f 70f
10:50pm 3ft 7s 5s 13 16 mph 1015.5mb 78f 70f
10:40pm  -   -   -  13 18 mph 1015.6mb 78f 70f
10:30pm  -   -   -  13 18 mph 1015.6mb 78f 70f
10:20pm  -   -   -  13 16 mph 1015.7mb 78f 70f
10:10pm  -   -   -  11 16 mph 1015.8mb 78f 70f
10:00pm  -   -   -  11 16 mph 1015.9mb 78f 70f
9:50pm 3ft 7s 4s 11 16 mph 1015.9mb 78f 70f
9:40pm  -   -   -  11 16 mph 1015.9mb 78f 70f
9:30pm  -   -   -  11 16 mph 1016.1mb 78f 70f
9:20pm  -   -   -  11 16 mph 1016.1mb 78f 70f
9:10pm  -   -   -  11 16 mph 1016.1mb 78f 70f
9:00pm  -   -   -  11 16 mph 1016.2mb 78f 70f
8:50pm 2.5ft 5s 4s 11 18 mph 1016mb 78f 70f
8:40pm 2.5ft  -  4s 11 16 mph 1015.8mb 78f 70f
8:30pm  -   -   -  11 16 mph 1015.9mb 78f 70f
8:20pm  -   -   -  11 13 mph 1015.9mb 78f 70f
8:10pm  -   -   -  11 16 mph 1015.6mb 78f 70f
8:00pm  -   -   -  11 16 mph 1015.4mb 78f 70f
7:50pm 2.5ft 5s 4s 11 16 mph 1015.2mb 78f 70f
7:40pm  -   -   -  13 18 mph 1014.9mb 78f 70f
7:30pm  -   -   -  13 18 mph 1014.6mb 78f 70f
7:20pm  -   -   -  13 18 mph 1014.6mb 78f 70f
7:10pm  -   -   -  11 18 mph 1014.9mb - 70f
7:00pm  -   -   -  11 18 mph 1014.8mb 78f -
6:50pm 2.5ft 5s 4s 11 16 mph 1014.8mb 78f 70f
6:40pm 2.5ft  -  4s 11 16 mph 1014.8mb - 70f
6:30pm  -   -   -  11 16 mph 1014.9mb 78f 70f
6:20pm  -   -   -  11 16 mph 1014.9mb 78f 70f
6:10pm  -   -   -  11 13 mph 1015mb 78f 70f
6:00pm  -   -   -  11 16 mph 1014.9mb 78f 70f
5:50pm 2.5ft 5s 4s 11 16 mph 1014.8mb - 70f
5:40pm 2.5ft  -  4s 11 16 mph 1014.6mb 78f 70f
5:30pm  -   -   -  11 16 mph 1014.5mb 78f 70f
5:20pm  -   -   -  11 16 mph 1014.5mb 78f 70f
5:10pm  -   -   -  11 16 mph 1014.4mb 78f 70f
5:00pm  -   -   -  9 13 mph 1014.3mb 78f 70f
4:50pm 2.5ft 5s 4s 7 9 mph 1014.4mb 78f 70f
4:40pm 2.5ft  -  4s 7 11 mph 1014.5mb 78f 70f
4:30pm  -   -   -  9 11 mph 1014.5mb 78f 71f
4:20pm  -   -   -  7 11 mph 1014.5mb - 70f
4:10pm  -   -   -  7 9 mph 1014.3mb 78f 70f
4:00pm  -   -   -  7 11 mph 1014mb 78f 71f
3:50pm 2.5ft 5s 4s 7 11 mph 1013.9mb 78f 71f
3:40pm  -   -   -  7 9 mph 1013.8mb 78f 71f
3:30pm  -   -   -  9 11 mph 1013.6mb 78f 71f
3:20pm  -   -   -  7 11 mph 1013.5mb 78f 70f
3:10pm  -   -   -  7 9 mph 1013.5mb 78f 70f
3:00pm  -   -   -  7 11 mph 1013.6mb 78f 70f
2:50pm 2.5ft 5s 4s 7 11 mph 1013.6mb 78f 70f
2:40pm 2.5ft  -  4s 7 11 mph 1013.5mb 78f 70f
2:30pm  -   -   -  7 9 mph 1013.8mb 78f 70f
2:20pm  -   -   -  7 11 mph 1013.8mb 78f 70f
2:10pm  -   -   -  7 11 mph 1013.8mb 78f 70f
2:00pm  -   -   -  7 11 mph 1014mb 78f 70f
1:50pm 2.5ft 4s 4s 7 9 mph 1014.3mb 78f 70f
1:40pm 2.5ft  -  4s 7 9 mph 1014.3mb 78f 70f
1:30pm  -   -   -  7 11 mph 1014.2mb 78f 71f
1:20pm  -   -   -  4 11 mph 1014.5mb 78f 71f
1:10pm  -   -   -  2 4 mph 1014.8mb 78f 70f
1:00pm  -   -   -  4 7 mph 1015.1mb 78f 70f
12:50pm 2.5ft  -  4s 4 7 mph 1015.1mb 78f -
12:40pm 2.5ft  -  4s 2 7 mph 1015.1mb 78f 71f
12:30pm  -   -   -  2 4 mph 1015.1mb 78f 71f
12:20pm  -   -   -  4 7 mph 1015.3mb 78f 70f
12:10pm  -   -   -  4 7 mph 1015.3mb 78f 70f
12:00pm  -   -   -  4 7 mph 1015.4mb 78f 70f
11:50am 2.5ft 5s 4s 4 9 mph 1015.5mb 78f 70f
11:40am 2.5ft  -  4s 4 7 mph 1015.7mb 78f 70f
11:30am  -   -   -  4 7 mph 1015.7mb 78f 70f
11:20am  -   -   -  4 9 mph 1015.9mb 78f 70f
11:10am  -   -   -  4 9 mph 1016mb 78f 70f
11:00am  -   -   -  4 7 mph 1016.2mb - 70f
10:50am 2.5ft 6s 4s 4 9 mph 1016.3mb 78f 70f
10:40am  -   -   -  4 9 mph 1016.4mb 78f 70f
10:30am  -   -   -  4 7 mph 1016.6mb 78f 70f
10:20am  -   -   -  4 9 mph 1016.6mb - 70f
10:10am  -   -   -  7 9 mph 1016.6mb 78f 70f
10:00am  -   -   -  7 11 mph 1016.7mb 78f 70f
9:50am 2ft 6s 4s 9 11 mph 1016.8mb 78f 70f
9:40am 2ft  -  4s 9 11 mph 1016.8mb 78f 70f
9:30am  -   -   -  9 11 mph 1016.9mb 78f 70f
9:20am  -   -   -  9 11 mph 1017mb 78f 70f
9:10am  -   -   -  9 13 mph 1017mb 78f 70f
9:00am  -   -   -  9 13 mph 1017mb 78f 70f
8:50am 2ft 6s 4s 11 16 mph 1016.9mb 78f 70f
8:40am  -   -   -  9 13 mph 1017mb 78f 70f
8:30am  -   -   -  11 13 mph 1016.9mb 78f 70f
8:20am  -   -   -  9 16 mph 1016.9mb 78f 70f
8:10am  -   -   -  9 11 mph 1016.8mb 78f 70f
8:00am  -   -   -  9 11 mph 1016.7mb 78f 70f
7:50am 2ft 6s 4s 9 11 mph 1016.8mb 78f 70f
7:40am 2ft  -  4s 7 11 mph 1016.7mb 78f 70f
7:30am  -   -   -  7 11 mph 1016.8mb 78f 70f
7:20am  -   -   -  9 13 mph 1016.6mb 78f 70f
7:10am  -   -   -  7 11 mph 1016.5mb - 70f
7:00am  -   -   -  7 11 mph 1016.4mb - 70f
6:50am 2ft 5s 4s 7 11 mph 1016.5mb 78f 70f
6:40am  -   -   -  4 9 mph 1016.5mb 78f 70f
6:30am  -   -   -  4 9 mph 1016.6mb 78f 70f
6:20am  -   -   -  2 7 mph 1016.6mb 78f 70f
6:10am  -   -   -  4 7 mph 1016.6mb 78f 70f
6:00am  -   -   -  4 9 mph 1016.6mb 78f 70f
5:50am 1.6ft 6s 4s 4 11 mph 1016.6mb 78f 69f
5:40am 1.6ft  -  4s 4 7 mph 1016.7mb 78f 69f
5:30am  -   -   -  4 9 mph 1016.7mb 78f 69f
5:20am  -   -   -  7 11 mph 1016.5mb 78f 69f
5:10am  -   -   -  7 13 mph 1016.2mb 78f 69f
5:00am  -   -   -  7 11 mph 1016.4mb 78f 69f
4:50am 2ft 5s 4s 9 11 mph 1016.4mb 78f 69f
4:40am  -   -   -  9 11 mph 1016.5mb 78f 69f
4:30am  -   -   -  9 13 mph 1016.5mb 78f 69f
4:20am  -   -   -  9 16 mph 1016.4mb 78f 69f
4:10am  -   -   -  9 13 mph 1016.3mb 78f 69f
4:00am  -   -   -  9 13 mph 1016.3mb 78f 69f
3:50am 2ft 5s 4s 9 13 mph 1016.2mb 78f 69f
3:40am 2ft  -  4s 9 16 mph 1016.1mb 78f 69f
3:30am  -   -   -  9 18 mph 1016.1mb 78f 69f
3:20am  -   -   -  9 18 mph 1016.2mb 78f 68f
3:10am  -   -   -  9 16 mph 1016.2mb 78f 68f
3:00am  -   -   -  11 13 mph 1016.1mb 78f 68f
2:50am 1.6ft 5s 4s 11 16 mph 1016mb 78f 68f
2:40am 1.6ft  -  4s 11 16 mph 1016mb 78f 68f
2:30am  -   -   -  11 16 mph 1016.1mb 78f 68f
2:20am  -   -   -  11 18 mph 1016.2mb 78f 68f
2:10am  -   -   -  11 16 mph 1016.4mb 78f 68f
2:00am  -   -   -  11 16 mph 1016.4mb 78f 68f
1:50am 1.6ft 6s 4s 11 16 mph 1016.5mb 78f 67f
1:40am  -   -   -  11 16 mph 1016.8mb 78f 67f
1:30am  -   -   -  11 13 mph 1017mb 78f 67f
1:20am  -   -   -  9 16 mph 1017.3mb 78f 67f
1:10am  -   -   -  9 13 mph 1017.4mb 78f 67f
1:00am  -   -   -  9 13 mph 1017.5mb - 67f
12:50am 2ft 6s 4s 9 13 mph 1017.6mb 78f 67f
12:40am  -   -   -  7 11 mph 1017.8mb 78f 67f
12:30am  -   -   -  7 11 mph 1017.8mb 78f 67f
12:20am  -   -   -  7 13 mph 1017.9mb 78f 67f
12:10am  -   -   -  7 13 mph 1018mb 78f 67f
12:00am  -   -   -  7 11 mph 1018.3mb - 67f
Mon 11/20 11:50pm 2ft  -  5s 4 11 mph 1018.5mb 78f 67f
11:40pm 2ft 6s 5s  -  mph - - -
11:30pm  -   -   -  4 9 mph 1018.6mb 78f 67f
11:20pm  -   -   -  4 9 mph 1018.8mb 78f 67f
11:10pm  -   -   -  4 7 mph 1019mb 78f 67f
11:00pm  -   -   -  4 9 mph 1019.1mb - 67f
10:50pm 2ft 6s 5s 4 9 mph 1019.1mb 78f 66f
10:40pm  -   -   -  4 9 mph 1019.2mb 78f 66f
10:30pm  -   -   -  2 9 mph 1019.3mb 78f -
10:20pm  -   -   -  2 7 mph 1019.3mb 78f 66f
10:10pm  -   -   -  2 7 mph 1019.4mb 78f 66f
10:00pm  -   -   -  4 9 mph 1019.5mb 78f 67f
9:50pm 2.5ft 6s 5s 4 7 mph 1019.7mb 78f 67f
9:40pm 2.5ft  -  5s 4 9 mph 1019.8mb 78f 66f
9:30pm  -   -   -  2 4 mph 1019.8mb 78f 66f
9:20pm  -   -   -  4 9 mph 1020mb 78f 66f
9:10pm  -   -   -  4 9 mph 1020.1mb 78f 66f
9:00pm  -   -   -  7 11 mph 1020mb 78f 66f
8:50pm 2.5ft 5s 5s 9 13 mph 1020.1mb 78f 66f
8:40pm  -   -   -  7 9 mph 1020.1mb 78f 66f
8:30pm  -   -   -  4 11 mph 1020.2mb 78f 66f
8:20pm  -   -   -  7 11 mph 1020.3mb 78f 66f
8:10pm  -   -   -  7 13 mph 1020.1mb 78f 66f
8:00pm  -   -   -  7 11 mph 1020.1mb 78f 66f
7:50pm 2.5ft 6s 5s 9 11 mph 1020mb 78f 66f
7:40pm  -   -   -  7 11 mph 1020mb 78f 66f
7:30pm  -   -   -  4 9 mph 1020.1mb 78f 66f
7:20pm  -   -   -  7 9 mph 1020mb 78f 66f
7:10pm  -   -   -  4 9 mph 1019.9mb 78f 66f
7:00pm  -   -   -  7 9 mph 1019.8mb 78f 66f
6:50pm 2.5ft 5s 5s 7 11 mph 1019.9mb 78f 65f
6:40pm  -   -   -  7 11 mph 1019.8mb 78f 66f
6:30pm  -   -   -  7 11 mph 1019.7mb 78f 66f
6:20pm  -   -   -  7 11 mph 1019.7mb 78f 66f
6:10pm  -   -   -  4 11 mph 1019.6mb 78f 65f
6:00pm  -   -   -  2 4 mph 1019.5mb 78f 65f
5:50pm 2.5ft 6s 4s 7 9 mph 1019.6mb 78f 65f
5:40pm 2.5ft  -  4s 4 9 mph 1019.5mb 78f 65f
5:30pm  -   -   -  4 9 mph 1019.4mb 78f 65f
5:20pm  -   -   -  4 9 mph 1019.3mb 78f 65f
5:10pm  -   -   -  4 9 mph 1019.4mb 78f 65f
5:00pm  -   -   -  2 7 mph 1019.3mb 78f 65f
4:50pm 2.5ft 6s 4s 2 7 mph 1019.3mb 79f 65f
4:40pm  -   -   -  2 4 mph 1019.3mb 79f 65f
4:30pm  -   -   -  4 9 mph 1019.5mb 79f 65f
4:20pm  -   -   -  7 9 mph 1019.5mb 79f 65f
4:10pm  -   -   -  2 7 mph 1019.6mb 79f 65f
4:00pm  -   -   -  7 11 mph 1019.6mb 79f 65f
3:50pm 2.5ft 5s 4s 4 9 mph 1019.6mb 79f 65f
3:40pm 2.5ft  -  4s 4 9 mph 1019.6mb 79f 65f
3:30pm  -   -   -  7 11 mph 1019.5mb 79f 65f
3:20pm  -   -   -  4 11 mph 1019.5mb 79f 65f
3:10pm  -   -   -  7 13 mph 1019.5mb 79f 65f
3:00pm  -   -   -  4 11 mph 1019.5mb 79f 65f
2:50pm 2.5ft 6s 4s 7 11 mph 1019.7mb 79f 65f
2:40pm 2.5ft  -  4s 4 9 mph 1019.7mb 79f 65f
2:30pm  -   -   -  7 9 mph 1019.8mb 79f 64f
2:20pm  -   -   -  7 11 mph 1020mb 79f 64f
2:10pm  -   -   -  4 9 mph 1020.2mb 79f 64f
2:00pm  -   -   -  4 9 mph 1020.2mb 79f 64f
1:50pm 2.5ft 6s 4s 4 9 mph 1020.3mb 79f 64f
1:40pm  -   -   -  7 9 mph 1020.3mb 79f 64f
1:30pm  -   -   -  4 9 mph 1020.4mb 79f 65f
1:20pm  -   -   -  4 9 mph 1020.6mb 79f 64f
1:10pm  -   -   -  7 13 mph 1020.6mb 79f 64f
1:00pm  -   -   -  9 11 mph 1020.4mb 79f 64f
12:50pm 3ft 6s 4s 7 11 mph 1020.6mb 79f 64f
12:40pm 3ft  -  4s 7 13 mph 1020.8mb 79f 64f
12:30pm  -   -   -  7 11 mph 1020.7mb 79f 64f
12:20pm  -   -   -  7 11 mph 1020.6mb 79f 64f
12:10pm  -   -   -  9 16 mph 1020.8mb - 64f
12:00pm  -   -   -  9 13 mph 1020.9mb 79f 64f
11:50am 3ft 6s 4s 9 13 mph 1021.2mb 79f 64f
11:40am  -   -   -  9 13 mph 1021.4mb 79f 63f
11:30am  -   -   -  9 13 mph 1021.7mb 79f 64f
11:20am  -   -   -  9 13 mph 1021.9mb 79f 63f
11:10am  -   -   -  9 16 mph 1022mb 79f 63f
11:00am  -   -   -  9 13 mph 1022.1mb 79f 63f
10:50am 3.5ft 6s 4s 11 18 mph 1022.3mb 79f 63f
10:40am 3.5ft  -  4s 9 16 mph 1022.4mb 79f 63f
10:30am  -   -   -  9 16 mph 1022.4mb - 63f
10:20am  -   -   -  11 18 mph 1022.4mb 78f 63f
10:10am  -   -   -  11 16 mph 1022.6mb - 63f
10:00am  -   -   -  11 16 mph 1022.7mb 78f 62f
9:50am 3.5ft 6s 4s 9 18 mph 1022.9mb 78f 62f
9:40am  -   -   -  11 18 mph 1022.8mb 78f 62f
9:30am  -   -   -  11 20 mph 1022.8mb 78f 62f
9:20am  -   -   -  9 18 mph 1023mb 78f 62f
9:10am  -   -   -  11 18 mph 1023mb 78f 62f
9:00am  -   -   -  13 18 mph 1022.8mb 78f 62f
8:50am 3.5ft 6s 4s 11 18 mph 1022.7mb 78f 62f
8:40am 3.5ft  -  4s 13 18 mph 1022.8mb 78f 62f
8:30am  -   -   -  11 18 mph 1023mb 78f 62f
8:20am  -   -   -  11 18 mph 1023.2mb 78f 62f
8:10am  -   -   -  11 20 mph 1022.9mb 78f 61f
8:00am  -   -   -  11 16 mph 1022.9mb 78f 61f
7:50am 3.5ft 5s 4s 13 18 mph 1022.8mb 78f 61f
7:40am  -   -   -  13 18 mph 1022.8mb 78f 61f
7:30am  -   -   -  13 20 mph 1022.7mb 78f 61f
7:20am  -   -   -  13 20 mph 1022.5mb 78f 61f
7:10am  -   -   -  13 20 mph 1022.4mb 78f 61f
7:00am  -   -   -  13 20 mph 1022.3mb 78f 61f
6:50am 4ft 6s 4s 13 22 mph 1022.3mb 78f 61f
6:40am 4ft  -  4s 13 22 mph 1022mb 78f 60f
6:30am  -   -   -  16 29 mph 1022mb 78f 60f
6:20am  -   -   -  16 20 mph 1022mb 78f 60f
6:10am  -   -   -  13 20 mph 1022mb 78f 60f
6:00am  -   -   -  13 20 mph 1021.9mb 78f 60f
5:50am 4.5ft 5s 4s 13 20 mph 1021.8mb 78f 60f
5:40am 4.5ft  -  4s 16 22 mph 1021.7mb 78f 60f
5:30am  -   -   -  16 22 mph 1021.6mb 78f 60f
5:20am  -   -   -  16 20 mph 1021.6mb 78f 60f
5:10am  -   -   -  16 20 mph 1021.6mb 78f 60f
5:00am  -   -   -  18 22 mph 1021.4mb 78f 60f
4:50am 4.5ft 6s 5s 16 25 mph 1021.3mb 78f 60f
4:40am 4.5ft  -  5s 18 22 mph 1021.3mb 78f 60f
4:30am  -   -   -  16 22 mph 1021.3mb 78f 60f
4:20am  -   -   -  16 25 mph 1021.2mb 78f 59f
4:10am  -   -   -  16 25 mph 1021.2mb 78f 59f
4:00am  -   -   -  16 22 mph 1021.2mb 78f 60f
3:50am 4.5ft  -  5s 16 22 mph 1021.3mb 78f -
3:40am  -   -   -  18 22 mph 1021.4mb 78f 60f
3:30am  -   -   -  18 25 mph 1021.4mb - 60f
3:20am  -   -   -  18 25 mph 1021.3mb 78f 60f
3:10am  -   -   -  16 22 mph 1021.4mb 78f 60f
3:00am  -   -   -  16 22 mph 1021.5mb 78f 60f
2:50am 5.5ft 6s 5s 16 25 mph 1021.4mb 78f 60f
2:40am 5.5ft  -  5s 18 22 mph 1021.4mb 78f 60f
2:30am  -   -   -  16 22 mph 1021.4mb 78f 60f
2:20am  -   -   -  16 25 mph 1021.5mb 78f 60f
2:10am  -   -   -  16 25 mph 1021.6mb 78f 60f
2:00am  -   -   -  18 20 mph 1021.7mb 78f 60f
1:50am 5ft 6s 5s 18 27 mph 1021.6mb 78f 60f
1:40am 5ft  -  5s 18 27 mph 1021.6mb 78f 60f
1:30am  -   -   -  18 22 mph 1021.7mb 78f 60f
1:20am  -   -   -  18 27 mph 1021.9mb - 60f
1:10am  -   -   -  20 27 mph 1021.7mb 78f 60f
1:00am  -   -   -  20 27 mph 1021.7mb 78f 60f
12:50am 5.5ft 6s 5s 20 27 mph 1021.7mb 78f 60f
12:40am  -   -   -  20 27 mph 1021.7mb 78f 60f